Sunday, December 17, 2017, 10:21 PM EST
Back to Local

KEWB, New Bedford Regional Airport

Location: New Bedford, MA, United States Lat: 41.683
Local Time: 10:21 PM EST ( 3:21 GMT) Lon: -70.967
Time Zone: US/Eastern Elev: 78 ft

Show me the last for .
Show Decoded

2017-12-17 21:53 METAR KEWB 180253Z 00000KT 10SM CLR M05/M09 A3026 RMK AO2 SLP249 T10501089 50002
                 =
2017-12-17 20:53 METAR KEWB 180153Z 00000KT 10SM CLR M05/M09 A3028 RMK AO2 SLP253 T10501089 =
2017-12-17 19:53 METAR KEWB 180053Z 00000KT 10SM CLR M06/M11 A3028 RMK AO2 SLP253 T10561106 =
2017-12-17 18:53 METAR KEWB 172353Z 03003KT 10SM CLR M05/M11 A3026 RMK AO2 SLP247 T10501111 11017
                 21050 53009 =
2017-12-17 17:53 METAR KEWB 172253Z 00000KT 10SM CLR M04/M13 A3024 RMK AO2 SLP242 T10391133 =
2017-12-17 16:53 METAR KEWB 172153Z 26003KT 10SM CLR M03/M14 A3024 RMK AO2 SLP241 T10331139 =
2017-12-17 15:53 METAR KEWB 172053Z 28004KT 10SM CLR M02/M14 A3023 RMK AO2 SLP237 T10221144 53002
                 =
2017-12-17 14:53 METAR KEWB 171953Z 29006KT 10SM CLR M02/M14 A3021 RMK AO2 SLP232 T10221144 =
2017-12-17 13:53 METAR KEWB 171853Z 30004KT 10SM CLR M02/M15 A3021 RMK AO2 SLP232 T10171150 =
2017-12-17 12:53 METAR KEWB 171753Z 27007KT 10SM CLR M02/M15 A3022 RMK AO2 SLP235 T10221150 11011
                 21117 58016 =
2017-12-17 11:53 METAR KEWB 171653Z VRB04KT 10SM CLR M02/M15 A3024 RMK AO2 SLP242 T10221150 =
2017-12-17 10:53 METAR KEWB 171553Z 32007KT 10SM CLR M03/M14 A3026 RMK AO2 SLP248 T10281144 =
2017-12-17 09:53 METAR KEWB 171453Z 30007KT 10SM CLR M04/M14 A3027 RMK AO2 SLP251 T10441139 50004
                 =
2017-12-17 08:53 METAR KEWB 171353Z 32006KT 10SM CLR M06/M13 A3028 RMK AO2 SLP253 T10561128 =
2017-12-17 07:53 METAR KEWB 171253Z 00000KT 10SM CLR M10/M11 A3026 RMK AO2 SLP249 T11001106 =
2017-12-17 06:53 METAR KEWB 171153Z 00000KT 10SM CLR M11/M13 A3026 RMK AO2 SLP247 T11111133 11050
                 21117 50016 =
2017-12-17 05:53 METAR KEWB 171053Z AUTO 28004KT 10SM CLR M09/M12 A3027 RMK AO2 SLP249 T10891117
                 =
2017-12-17 04:53 METAR KEWB 170953Z AUTO 00000KT 10SM CLR M08/M11 A3023 RMK AO2 SLP239 T10781111
                 =
2017-12-17 03:53 METAR KEWB 170853Z AUTO 00000KT 10SM CLR M07/M11 A3021 RMK AO2 SLP231 T10671111
                 51013 =
2017-12-17 02:53 METAR KEWB 170753Z AUTO 30005KT 10SM CLR M06/M11 A3021 RMK AO2 SLP229 T10611111
                 =
2017-12-17 01:53 METAR KEWB 170653Z AUTO 30005KT 10SM CLR M06/M11 A3019 RMK AO2 SLP225 T10611111
                 =
2017-12-17 00:53 METAR KEWB 170553Z AUTO 30004KT 10SM CLR M06/M11 A3018 RMK AO2 SLP219 T10561106
                 11006 21056 51016 =
2017-12-16 23:53 METAR KEWB 170453Z AUTO 29004KT 10SM CLR M05/M09 A3016 RMK AO2 SLP215 T10501089
                 400061072 =
2017-12-16 22:53 METAR KEWB 170353Z AUTO 30006KT 10SM CLR M03/M10 A3015 RMK AO2 SLP212 T10331100
                 =

Support USWX by starting your Amazon purchase here.